Regional Weather Roundup
Issued by NWS

Home | Current Version | Previous Version | Text Only | Print | Product List | Glossary On
Versions: 1 2 3 4 5 6 7 8 9 10 11 12 13 14 15 16 17 18 19 20 21 22 23 24 25 26 27 28 29 30 31 32 33 34 35 36 37 38 39 40 41 42 43 44 45 46 47 48 49 50
000
ASUS43 KDMX 021707
RWRIA

WEATHER ROUNDUP FOR IOWA
NATIONAL WEATHER SERVICE DES MOINES IA
1200 PM CDT WED SEP 02 2015

NOTE: "FAIR" INDICATES FEW OR NO CLOUDS BELOW 12,000 FEET WITH NO
SIGNIFICANT WEATHER AND/OR OBSTRUCTIONS TO VISIBILITY.

* - THESE STATIONS ARE NOT NWS STATIONS...THUS NOT UNDER NWS
QUALITY CONTROL.  THEY ALSO DO NOT REPORT WEATHER SUCH
AS PRECIPITATION OR FOG.

IAZ001>003-012>014-020>022-031>034-043>046-021800-
   NORTHWEST IOWA

CITY           SKY/WX    TMP DP  RH WIND       PRES   REMARKS
CARROLL *      SUNNY     81  70  69 SW23G33   29.93F HX  84
CHEROKEE *     SUNNY     81  72  74 S15G21    29.89F HX  84
DENISON *      SUNNY     79  72  78 S17G29    29.91S HX  82
LE MARS *      SUNNY     81  72  74 S15       29.88F HX  84
ORANGE CITY *  SUNNY     81  72  74 S15       29.88F HX  84
SHELDON *      SUNNY     81  72  74 S12G18    29.87F HX  84
SIOUX CITY     SUNNY     83  69  62 S14       29.87F HX  86
SPENCER        SUNNY     82  69  64 S16G23    29.89F HX  85
STORM LAKE *   SUNNY     81  72  74 S16G23    29.92F HX  84
$$

IAZ055>058-069>071-079>083-090>094-021800-
   SOUTHWEST IOWA

CITY           SKY/WX    TMP DP  RH WIND       PRES   REMARKS
ATLANTIC *     SUNNY     81  70  69 S16G25    29.96S HX  84
AUDUBON *      SUNNY     81  72  74 S17G25    29.96F HX  84
CLARINDA *     SUNNY     79  72  78 S16G25    29.99F HX  82
COUNCIL BLFS * SUNNY     82  68  61 S17G25    29.94S HX  85
CRESTON *      MOSUNNY   77  70  78 S22G29    30.01F
LAMONI         MOSUNNY   77  70  79 S16G23    30.01F
RED OAK *      PTSUNNY   79  72  78 S15G24    29.96F HX  82
SHENANDOAH *   MOSUNNY   82  72  69 S21G29    29.96F HX  87
$$

IAZ047>049-059>061-072>074-084-021800-
   CENTRAL IOWA

CITY           SKY/WX    TMP DP  RH WIND       PRES   REMARKS
AMES           SUNNY     81  70  69 S15G26    29.95F HX  84
ANKENY *       SUNNY     82  70  65 S21G29    29.94F HX  86
CHARITON *     SUNNY     79  70  73 S17G28    29.98F HX  81
DES MOINES     MOSUNNY   82  67  60 SW20G28   29.95F HX  84
GRINNELL*      MOSUNNY   79  70  73 SW15G23   29.98F HX  81
KNOXVILLE *    SUNNY     77  68  73 SW15G25   29.96F
MARSHALLTOWN   SUNNY     80  68  66 SW20G30   29.95F HX  83
PELLA *        MOSUNNY   75  75 100 SW10G23   29.98F
PERRY *          N/A     82  70  65 S20G26    29.94F HX  86
$$

IAZ004>006-015-016-023>025-035-036-021800-
   NORTH CENTRAL IOWA

CITY           SKY/WX    TMP DP  RH WIND       PRES   REMARKS
ALGONA *       SUNNY     81  72  74 S16G24    29.91F HX  84
CLARION *      SUNNY     81  70  69 SW22G28   29.93F HX  84
ESTHERVILLE    SUNNY     79  70  74 S17G24    29.89F HX  82
FORT DODGE *   MOSUNNY   81  70  69 S20G29    29.93F HX  84
MASON CITY     SUNNY     82  69  64 SW25      29.94S HX  85
FOREST CITY *  SUNNY     81  66  61 S21G28    29.93S HX  83
IOWA FALLS *     N/A     82  70  65 S17G23    29.95F HX  86
$$

IAZ007>011-017>019-026>030-037>042-050>054-066-021800-
   NORTHEAST IOWA

CITY           SKY/WX    TMP DP  RH WIND       PRES   REMARKS
CEDAR RAPIDS   PTSUNNY   75  71  87 S10       30.00F
CHARLES CITY * MOSUNNY   81  72  74 S14G21    29.96F HX  84
CLINTON *      PTSUNNY   82  68  61 SW10      30.04F HX  85
DECORAH *      PTSUNNY   81  68  65 S12       29.97F HX  83
DUBUQUE        CLOUDY    77  68  73 SW10      30.02F
MONTICELLO *   SUNNY     79  70  73 S7        30.00F HX  81
OELWEIN *      PTSUNNY   79  70  73 SW15      29.99F HX  81
WATERLOO       MOSUNNY   80  70  71 S15       29.95F HX  83
$$

IAZ064-065-067-068-078-021800-
   EAST CENTRAL IOWA

CITY           SKY/WX    TMP DP  RH WIND       PRES   REMARKS
DAVENPORT      PTSUNNY   82  69  64 SW9       30.03S HX  85
IOWA CITY      CLOUDY    77  69  76 S6        30.02F
MT. PLEASANT * CLOUDY    81  66  61 SW3       30.02F HX  83
MUSCATINE *    SUNNY     81  68  65 SW7       30.02F HX  83
QUAD CITIES    PTSUNNY   85  69  58 SW12      30.02S HX  89
$$

IAZ062-063-075>077-085>089-095>099-021800-
   SOUTHEAST IOWA

CITY           SKY/WX    TMP DP  RH WIND       PRES   REMARKS
BURLINGTON     CLOUDY    82  70  66 SW8       30.03S HX  86
FAIRFIELD *    SUNNY     77  68  73 S7        30.02S
FORT MADISON * SUNNY     81  73  78 SW7       30.03S HX  85
KEOKUK *       SUNNY     81  72  74 SW10G20   30.01F HX  84
OSKALOOSA *    PTSUNNY   75  68  78 SW10G16   29.99F
CENTERVILLE *  SUNNY     73  70  88 SW13G21   30.01F
OTTUMWA        CLOUDY    75  70  84 SW12      29.98F
WASHINGTON *     N/A    N/A N/A N/A MISG        N/A
$$

ABBREVIATIONS USED IN REMARKS
   TC - TEMPERATURES IN CELSIUS
  WCI - WIND CHILL INDEX
   HX - HEAT INDEX
  VSB - VISIBILITY
$$




USA.gov is the U.S. government's official web portal to all federal, state and local government web resources and services.